STARLETTE [DGF] 1 07646C 75010A 22227.00000000 .00000014 00000+0 11294-4 0 2270 2 07646 49.8209 239.1300 0205772 110.9846 102.7406 13.82313063 18 STARLETTE [HTS] 1 07646C 75010A 22226.98750000 .00000002 00000+0 15870-5 0 2269 2 07646 49.8209 239.1781 0205770 110.9419 40.5386 13.82313121 16 STARLETTE [SGF] 1 07646C 75010A 22226.00000000 -.00000013 00000+0 -10278-4 0 2260 2 07646 49.8208 243.0767 0205770 107.6786 166.4164 13.82313232 18